Location: Alsip
(41.6689°N, 87.7387°W)
Time: 09:39:55
(UTC+00:00)

GEOS 3 Rocket - Pass Details

Date: 28 October 2020
Orbit: 770 x 850 km, 115.0° (Epoch: 03 December)

Event Time Altitude Azimuth Distance (km) Brightness Sun altitude
Exits shadow 23:44:54 14° 75° (ENE) 2,185 5.2 -10.8°
Maximum altitude 23:47:51 21° 36° (NE) 1,793 5.0 -11.4°
Drops below altitude 10° 23:51:48 10° 348° (NNW) 2,476 6.2 -12.1°
Sets 23:54:38 0° 334° (NNW) 3,419 7.1 -12.6°
